Location: El Bakhil
(32.7726°N, 5.5387°W)
Time: 07:21:44
(UTC+00:00)

N. Korean satellite - Pass Details

Date: 23 May 2021
Orbit: 450 x 499 km, 97.2° (Epoch: 21 June)

Event Time Altitude Azimuth Distance (km) Brightness Sun altitude
Rises 04:49:16 0° 33° (NNE) 2,461 11.4 -6.3°
Reaches altitude 10° 04:51:55 10° 56° (NE) 1,587 11.0 -5.8°
Maximum altitude 04:54:03 16° 95° (E) 1,277 9.6 -5.4°
Drops below altitude 10° 04:56:12 10° 134° (SE) 1,589 9.4 -5.0°
Sets 04:58:51 0° 157° (SSE) 2,465 10.1 -4.5°
